O'Neill, NE

4:28 PM CDT on April 28, 2017 (GMT -0500)
The O'Neill Municipal-Baker

Weather History for KONL - May, 2014

Change the Weather History Date:

Friday, May 9, 2014

  Actual Average Record
Temperature  
Mean Temperature 52 °F -  
Max Temperature 68 °F 71 °F 93 °F (2011)
Min Temperature 36 °F 43 °F 26 °F (1969)
Degree Days  
Heating Degree Days 13    
Growing Degree Days 2 (Base 50)    
Moisture  
Dew Point 35 °F    
Average Humidity 56    
Maximum Humidity 85    
Minimum Humidity 26    
Precipitation  
Precipitation 0.00 in - - ()
Sea Level Pressure  
Sea Level Pressure 29.82 in    
Wind  
Wind Speed 10 mph (West)    
Max Wind Speed 16 mph    
Max Gust Speed 21 mph    
Visibility 10 miles    
Events      
Averages and records for this station are not official NWS values.
T = Trace of Precipitation, MM = Missing Value Source: NWS Daily Summary

Daily Weather History Graph

Daily Weather History Graph

Search for Another Location

Airport or City:

Trip Planner

Search our weather history database for the weather conditions in past years. The results will help you decide how hot, cold, wet, or windy it might be!

Date:

Astronomy

May. 09, 2014 Rise Set
Actual Time 6:19 AM CDT 8:43 PM CDT
Civil Twilight 5:47 AM CDT 9:15 PM CDT
Nautical Twilight 5:08 AM CDT 9:54 PM CDT
Astronomical Twilight 4:25 AM CDT 10:38 PM CDT
Moon 3:36 PM CDT (5/9) 3:29 AM CDT (5/9)
Length of Visible Light 15h 27m
Length of Day
14h 23m
Waxing Gibbous, 74% of the Moon is Illuminated
May 9
Waxing Gibbous
May 14
Full
May 21
Last Quarter
May 28
New
Jun 5
First Quarter

Hourly Weather History & Observations

Time (CDT) Temp. Windchill Dew Point Humidity Pressure Visibility Wind Dir Wind Speed Gust Speed Precip Events Conditions
12:15 AM 41.9 °F 34.6 °F 36.9 °F 82% 29.86 in 10.0 mi West 13.8 mph - N/A   Overcast
12:35 AM 42.1 °F 34.9 °F 36.9 °F 82% 29.86 in 10.0 mi West 13.8 mph 20.7 mph N/A   Overcast
12:55 AM 42.3 °F 35.5 °F 36.7 °F 81% 29.86 in 10.0 mi WNW 12.7 mph - N/A   Overcast
1:15 AM 42.3 °F 34.4 °F 36.7 °F 81% 29.86 in 10.0 mi WNW 16.1 mph - N/A   Overcast
1:35 AM 42.1 °F 34.5 °F 36.3 °F 80% 29.87 in 10.0 mi WNW 15.0 mph 18.4 mph N/A   Overcast
1:55 AM 42.3 °F 35.9 °F 36.5 °F 80% 29.87 in 10.0 mi WNW 11.5 mph - N/A   Overcast
2:15 AM 42.4 °F 35.7 °F 36.5 °F 79% 29.86 in 10.0 mi West 12.7 mph 17.3 mph N/A   Overcast
2:35 AM 42.3 °F 35.1 °F 36.5 °F 80% 29.85 in 10.0 mi WNW 13.8 mph 18.4 mph N/A   Overcast
2:55 AM 41.2 °F 34.1 °F 35.8 °F 81% 29.86 in 10.0 mi WNW 12.7 mph - N/A   Scattered Clouds
3:15 AM 40.8 °F 33.7 °F 35.6 °F 82% 29.85 in 10.0 mi WNW 12.7 mph - N/A   Clear
3:35 AM 40.3 °F 33.0 °F 35.1 °F 82% 29.84 in 10.0 mi WNW 12.7 mph - N/A   Scattered Clouds
3:55 AM 39.7 °F 33.7 °F 34.7 °F 82% 29.85 in 10.0 mi WNW 9.2 mph - N/A   Scattered Clouds
4:15 AM 39.4 °F 31.8 °F 34.3 °F 82% 29.85 in 10.0 mi West 12.7 mph - N/A   Clear
4:35 AM 38.5 °F 32.1 °F 34.0 °F 84% 29.85 in 10.0 mi West 9.2 mph - N/A   Clear
4:55 AM 38.3 °F 31.9 °F 33.8 °F 84% 29.85 in 10.0 mi West 9.2 mph - N/A   Clear
5:15 AM 37.9 °F 30.9 °F 33.6 °F 84% 29.85 in 10.0 mi West 10.4 mph - N/A   Clear
5:35 AM 37.6 °F 30.5 °F 33.1 °F 84% 29.84 in 10.0 mi West 10.4 mph - N/A   Clear
5:55 AM 37.4 °F 30.3 °F 32.9 °F 84% 29.84 in 10.0 mi West 10.4 mph - N/A   Clear
6:15 AM 36.7 °F 30.5 °F 32.4 °F 84% 29.85 in 10.0 mi West 8.1 mph - N/A   Clear
6:35 AM 37.0 °F 31.0 °F 32.9 °F 85% 29.85 in 10.0 mi West 8.1 mph - N/A   Clear
6:55 AM 37.4 °F 30.3 °F 33.1 °F 84% 29.85 in 10.0 mi West 10.4 mph - N/A   Clear
7:15 AM 38.7 °F 31.8 °F 33.4 °F 81% 29.86 in 10.0 mi West 10.4 mph - N/A   Clear
7:35 AM 40.1 °F 33.6 °F 34.3 °F 80% 29.87 in 10.0 mi West 10.4 mph - N/A   Clear
7:55 AM 41.9 °F 36.3 °F 34.9 °F 76% 29.88 in 10.0 mi West 9.2 mph - N/A   Clear
8:15 AM 43.7 °F 38.1 °F 35.8 °F 74% 29.88 in 10.0 mi West 10.4 mph - N/A   Clear
8:35 AM 45.1 °F 41.4 °F 35.6 °F 69% 29.87 in 10.0 mi West 6.9 mph - N/A   Clear
8:55 AM 47.1 °F - 36.1 °F 66% 29.87 in 10.0 mi West 6.9 mph - N/A   Clear
9:15 AM 48.9 °F - 37.0 °F 64% 29.87 in 10.0 mi WNW 8.1 mph - N/A   Clear
9:35 AM 51.3 °F - 37.8 °F 60% 29.87 in 10.0 mi WNW 6.9 mph - N/A   Clear
9:55 AM 52.3 °F - 36.7 °F 55% 29.87 in 10.0 mi NW 8.1 mph - N/A   Clear
10:15 AM 52.5 °F - 34.0 °F 49% 29.86 in 10.0 mi NW 6.9 mph - N/A   Clear
10:35 AM 53.8 °F - 34.5 °F 48% 29.86 in 10.0 mi West 4.6 mph - N/A   Clear
10:55 AM 54.0 °F - 32.2 °F 44% 29.85 in 10.0 mi West 5.8 mph - N/A   Clear
11:15 AM 55.4 °F - 30.9 °F 39% 29.85 in 10.0 mi WSW 6.9 mph - N/A   Clear
11:35 AM 56.7 °F - 31.8 °F 39% 29.85 in 10.0 mi SW 6.9 mph - N/A   Clear
11:55 AM 56.5 °F - 30.4 °F 37% 29.85 in 10.0 mi WNW 4.6 mph - N/A   Clear
12:15 PM 58.6 °F - 31.8 °F 36% 29.85 in 10.0 mi WSW 9.2 mph - N/A   Clear
12:35 PM 58.1 °F - 30.2 °F 35% 29.84 in 10.0 mi WNW 5.8 mph - N/A   Clear
12:55 PM 60.3 °F - 32.2 °F 35% 29.84 in 10.0 mi SW 6.9 mph 16.1 mph N/A   Clear
1:15 PM 60.8 °F - 32.4 °F 34% 29.83 in 10.0 mi WSW 8.1 mph 17.3 mph N/A   Clear
1:35 PM 61.2 °F - 33.1 °F 35% 29.82 in 10.0 mi WSW 11.5 mph - N/A   Clear
1:55 PM 62.4 °F - 34.5 °F 35% 29.82 in 10.0 mi SW 13.8 mph 18.4 mph N/A   Clear
2:15 PM 62.2 °F - 35.8 °F 37% 29.81 in 10.0 mi WSW 12.7 mph 18.4 mph N/A   Scattered Clouds
2:35 PM 62.4 °F - 35.1 °F 36% 29.81 in 10.0 mi West 9.2 mph 18.4 mph N/A   Scattered Clouds
2:55 PM 63.9 °F - 35.8 °F 35% 29.80 in 10.0 mi WSW 11.5 mph 16.1 mph N/A   Scattered Clouds
3:15 PM 63.3 °F - 36.1 °F 36% 29.80 in 10.0 mi West 11.5 mph - N/A   Scattered Clouds
3:35 PM 65.3 °F - 36.5 °F 34% 29.79 in 10.0 mi West 10.4 mph - N/A   Clear
3:55 PM 66.4 °F - 37.4 °F 34% 29.79 in 10.0 mi WSW 10.4 mph 16.1 mph N/A   Clear
4:15 PM 64.2 °F - 36.0 °F 35% 29.78 in 10.0 mi West 8.1 mph - N/A   Scattered Clouds
4:35 PM 66.0 °F - 34.0 °F 30% 29.77 in 10.0 mi WSW 6.9 mph 10.4 mph N/A   Scattered Clouds
4:55 PM 67.1 °F - 35.2 °F 31% 29.76 in 10.0 mi West 9.2 mph - N/A   Clear
5:15 PM 67.1 °F - 33.3 °F 29% 29.76 in 10.0 mi West 3.5 mph 9.2 mph N/A   Clear
5:35 PM 67.6 °F - 34.5 °F 29% 29.76 in 10.0 mi WNW 8.1 mph - N/A   Clear
5:55 PM 67.8 °F - 33.1 °F 28% 29.75 in 10.0 mi West 4.6 mph - N/A   Clear
6:15 PM 67.8 °F - 32.5 °F 27% 29.74 in 10.0 mi Calm Calm - N/A   Clear
6:35 PM 68.4 °F - 34.5 °F 29% 29.74 in 10.0 mi West 4.6 mph - N/A   Clear
6:55 PM 68.0 °F - 31.6 °F 26% 29.74 in 10.0 mi Calm Calm - N/A   Clear
7:15 PM 67.8 °F - 32.7 °F 27% 29.73 in 10.0 mi Calm Calm - N/A   Clear
7:35 PM 66.4 °F - 36.0 °F 33% 29.74 in 10.0 mi East 5.8 mph - N/A   Clear
7:55 PM 63.5 °F - 41.9 °F 45% 29.73 in 10.0 mi East 5.8 mph - N/A   Clear
8:15 PM 62.6 °F - 40.8 °F 45% 29.74 in 10.0 mi East 5.8 mph - N/A   Clear
8:35 PM 59.5 °F - 41.0 °F 50% 29.74 in 10.0 mi East 6.9 mph - N/A   Clear
8:55 PM 57.9 °F - 41.2 °F 54% 29.74 in 10.0 mi East 6.9 mph - N/A   Clear
9:15 PM 57.2 °F - 40.1 °F 53% 29.74 in 10.0 mi East 8.1 mph - N/A   Clear
9:35 PM 55.8 °F - 40.5 °F 56% 29.75 in 10.0 mi East 8.1 mph - N/A   Clear
9:55 PM 55.2 °F - 40.1 °F 57% 29.76 in 10.0 mi East 8.1 mph - N/A   Clear
10:15 PM 57.4 °F - 38.1 °F 49% 29.76 in 10.0 mi East 9.2 mph - N/A   Clear
10:35 PM 56.3 °F - 38.5 °F 51% 29.77 in 10.0 mi East 10.4 mph - N/A   Clear
10:55 PM 56.5 °F - 38.5 °F 51% 29.77 in 10.0 mi East 9.2 mph - N/A   Clear
11:15 PM 55.6 °F - 38.8 °F 53% 29.77 in 10.0 mi East 8.1 mph - N/A   Scattered Clouds
11:35 PM 55.6 °F - 39.2 °F 54% 29.77 in 10.0 mi East 6.9 mph - N/A   Mostly Cloudy
11:55 PM 56.7 °F - 38.5 °F 51% 29.76 in 10.0 mi East 8.1 mph - N/A   Mostly Cloudy